User: anonymous   Login
Location: Hopkins Observatory
(42.6965°N, 73.1843°W)
Time: 11:53:53
(UTC-05:00)
Language:

RS-15 - Orbit

View from above orbital plane
View from above orbital plane
View from above satellite
View from above satellite

Ground track
Ground track

The orbit data is extracted from the following two-line orbital elements,

1 23439U 94085A   17056.87127522 -.00000052  00000-0 -26489-3 0  9991
2 23439  64.8175  39.2114 0168108 264.8763 111.0804 11.27566182913023
Epoch (UTC): 25 February 2017 20:54:38
Eccentricity: 0.0168108
inclination: 64.8175°
perigee height: 1881 km
apogee height: 2163 km
right ascension of ascending node: 39.2114°
argument of perigee: 264.8763°
revolutions per day: 11.27566182
mean anomaly at epoch: 111.0804°
orbit number at epoch: 91302

The dashed part of the orbit path shows where the satellite is in the earth's shadow,  

DLR